Dover AFB, DE

1:55 PM EDT on June 27, 2017 (GMT -0400)
Dover Air Force Base

Weather History for KDOV - March, 2013

Change the Weather History Date:

Sunday, March 10, 2013

  Actual Average Record
Temperature  
Mean Temperature 39 °F -  
Max Temperature 47 °F 52 °F 78 °F (1964)
Min Temperature 31 °F 33 °F 12 °F (1984)
Degree Days  
Heating Degree Days 26    
Moisture  
Dew Point 36 °F    
Average Humidity 89    
Maximum Humidity 100    
Minimum Humidity 70    
Precipitation  
Precipitation 0.00 in - - ()
Sea Level Pressure  
Sea Level Pressure 30.32 in    
Wind  
Wind Speed 4 mph (ESE)    
Max Wind Speed 12 mph    
Max Gust Speed -    
Visibility 10 miles    
Events      
Averages and records for this station are not official NWS values.
T = Trace of Precipitation, MM = Missing Value Source: NWS Daily Summary

Daily Weather History Graph

Daily Weather History Graph

Search for Another Location

Airport or City:

Trip Planner

Search our weather history database for the weather conditions in past years. The results will help you decide how hot, cold, wet, or windy it might be!

Date:

Astronomy

Mar. 10, 2013 Rise Set
Actual Time 7:20 AM EDT 7:04 PM EDT
Civil Twilight 6:53 AM EDT 7:30 PM EDT
Nautical Twilight 6:23 AM EDT 8:01 PM EDT
Astronomical Twilight 5:51 AM EDT 8:32 PM EDT
Moon 6:18 AM EDT (3/10) 6:09 PM EDT (3/10)
Length of Visible Light 12h 36m
Length of Day
11h 43m
Waning Crescent, 2% of the Moon is Illuminated
Mar 10
Waning Crescent
Mar 11
New
Mar 19
First Quarter
Mar 27
Full
Apr 3
Last Quarter

Hourly Weather History & Observations

Time (EDT) Temp. Windchill Dew Point Humidity Pressure Visibility Wind Dir Wind Speed Gust Speed Precip Events Conditions
12:55 AM 36.9 °F - 27.9 °F 70% 30.31 in 10.0 mi Calm Calm - N/A   Clear
1:55 AM 35.2 °F - 29.7 °F 80% 30.31 in 10.0 mi Calm Calm - N/A   Clear
3:55 AM 34.7 °F - 26.8 °F 73% 30.30 in 10.0 mi Calm Calm - N/A   Clear
4:55 AM 33.6 °F - 32.5 °F 96% 30.30 in 10.0 mi Calm Calm - N/A   Clear
5:55 AM 32.0 °F - 23.9 °F 72% 30.31 in 10.0 mi Calm Calm - N/A   Clear
6:55 AM 31.3 °F 25.6 °F 30.9 °F 99% 30.32 in 10.0 mi East 5.8 mph - N/A   Clear
7:55 AM 33.6 °F - 33.3 °F 99% 30.34 in 10.0 mi Calm Calm - N/A   Clear
8:55 AM 40.3 °F 37.1 °F 39.6 °F 97% 30.35 in 10.0 mi East 4.6 mph - N/A   Clear
9:55 AM 44.2 °F 40.3 °F 37.8 °F 78% 30.36 in 10.0 mi East 6.9 mph - N/A   Clear
10:55 AM 44.4 °F 39.0 °F 38.7 °F 80% 30.35 in 10.0 mi East 10.4 mph - N/A   Clear
11:55 AM 46.9 °F - 38.7 °F 73% 30.36 in 10.0 mi East 8.1 mph - N/A   Clear
12:55 PM 47.7 °F - 39.0 °F 72% 30.37 in 10.0 mi ESE 6.9 mph - N/A   Clear
1:55 PM 47.7 °F - 39.6 °F 73% 30.35 in 10.0 mi ESE 11.5 mph - N/A   Clear
2:55 PM 46.9 °F - 38.7 °F 73% 30.32 in 10.0 mi ESE 9.2 mph - N/A   Clear
3:55 PM 46.4 °F 41.5 °F 38.5 °F 74% 30.32 in 10.0 mi SE 10.4 mph - N/A   Clear
4:55 PM 45.9 °F 40.8 °F 38.1 °F 74% 30.31 in 10.0 mi ESE 10.4 mph - N/A   Clear
5:55 PM 43.5 °F 37.5 °F 36.9 °F 77% 30.30 in 10.0 mi ESE 11.5 mph - N/A   Clear
6:55 PM 40.1 °F 34.1 °F 38.5 °F 94% 30.30 in 10.0 mi ESE 9.2 mph - N/A   Clear
7:55 PM 39.0 °F 32.3 °F 38.8 °F 99% 30.31 in 10.0 mi ESE 10.4 mph - N/A   Clear
8:47 PM 39.2 °F 34.2 °F 39.2 °F 100% 30.32 in 10.0 mi ESE 6.9 mph - N/A   Partly Cloudy
8:55 PM 38.8 °F 33.8 °F 38.5 °F 99% 30.31 in 10.0 mi ESE 6.9 mph - N/A   Partly Cloudy
9:32 PM 39.2 °F 35.0 °F 39.2 °F 100% 30.32 in 10.0 mi ESE 5.8 mph - N/A   Mostly Cloudy
9:33 PM 39.2 °F 34.2 °F 39.2 °F 100% 30.32 in 10.0 mi ESE 6.9 mph - N/A   Mostly Cloudy
9:48 PM 39.2 °F 34.2 °F 39.2 °F 100% 30.31 in 10.0 mi ESE 6.9 mph - N/A   Mostly Cloudy
9:55 PM 39.0 °F 34.8 °F 38.7 °F 99% 30.31 in 10.0 mi SE 5.8 mph - N/A   Mostly Cloudy
10:18 PM 39.2 °F 35.0 °F 37.4 °F 93% 30.32 in 10.0 mi SE 5.8 mph - N/A   Scattered Clouds
10:21 PM 39.2 °F 35.0 °F 37.4 °F 93% 30.32 in 10.0 mi SE 5.8 mph - N/A   Mostly Cloudy
10:55 PM 37.8 °F 35.3 °F 37.6 °F 99% 30.32 in 10.0 mi SSE 3.5 mph - N/A   Overcast
11:19 PM 37.4 °F - 37.4 °F 100% 30.31 in 10.0 mi Calm Calm - N/A   Overcast
11:55 PM 37.9 °F 35.5 °F 37.8 °F 99% 30.30 in 10.0 mi ESE 3.5 mph - N/A   Overcast
12:08 AM 37.4 °F 32.8 °F 37.4 °F 100% 30.30 in 10.0 mi ESE 5.8 mph - N/A   Overcast
12:26 AM 37.4 °F 31.4 °F 37.4 °F 100% 30.30 in 10.0 mi SE 8.1 mph - N/A   Scattered Clouds
12:55 AM 37.8 °F 31.8 °F 37.4 °F 99% 30.27 in 10.0 mi SE 8.1 mph - N/A   Clear